Weather History for Ogallala, NE

Change the Weather History Date:

Wednesday, June 26, 2013

  Actual Average Record
Temperature  
Mean Temperature 76 °F -  
Max Temperature 98 °F 85 °F 108 °F (2012)
Min Temperature 55 °F 55 °F 37 °F (1985)
Cooling Degree Days 12    
Growing Degree Days 26 (Base 50)    
Moisture  
Dew Point 53 °F    
Average Humidity 49    
Maximum Humidity 92    
Minimum Humidity 13    
Precipitation  
Precipitation 0.00 in - - ()
Sea Level Pressure  
Sea Level Pressure 29.96 in    
Wind  
Wind Speed 4 mph (SSW)    
Max Wind Speed 13 mph    
Max Gust Speed 17 mph    
Visibility 10 miles    
Events      
Averages and records for this station are not official NWS values.
T = Trace of Precipitation, MM = Missing Value Source: NWS Daily Summary

Daily Weather History Graph

Daily Weather History Graph

Search for Another Location

Airport:

Trip Planner

Search our weather history database for the weather conditions in past years. The results will help you decide how hot, cold, wet, or windy it might be!

Date:

Astronomy

Jun. 26, 2013 Rise Set
Actual Time 5:16 AM MDT 8:23 PM MDT
Civil Twilight 4:42 AM MDT 8:57 PM MDT
Nautical Twilight 3:59 AM MDT 9:40 PM MDT
Astronomical Twilight 3:08 AM MDT 10:31 PM MDT
Moon 10:45 PM MDT (6/26) 9:12 AM MDT (6/26)
Length of Visible Light 16h 14m
Length of Day
15h 07m
Waning Gibbous, 85% of the Moon is Illuminated
Jun 26
Waning Gibbous
Jun 29
Last Quarter
Jul 8
New
Jul 15
First Quarter
Jul 22
Full

Hourly Weather History & Observations

Time (MDT) Temp. Heat Index Dew Point Humidity Pressure Visibility Wind Dir Wind Speed Gust Speed Precip Events Conditions
12:15 AM 61.7 °F - 56.1 °F 82% 29.90 in 10.0 mi West 3.5 mph - N/A   Clear
12:35 AM 61.2 °F - 56.5 °F 85% 29.91 in 10.0 mi WNW 3.5 mph - N/A   Clear
12:55 AM 60.6 °F - 55.8 °F 84% 29.92 in 10.0 mi SW 4.6 mph - N/A   Clear
1:15 AM 60.1 °F - 56.3 °F 87% 29.92 in 10.0 mi NW 3.5 mph - N/A   Clear
1:35 AM 61.0 °F - 56.3 °F 85% 29.93 in 10.0 mi Calm Calm - N/A   Clear
1:55 AM 59.9 °F - 56.1 °F 87% 29.93 in 10.0 mi Calm Calm - N/A   Clear
2:15 AM 60.1 °F - 56.3 °F 87% 29.93 in 10.0 mi Calm Calm - N/A   Clear
2:35 AM 58.8 °F - 55.6 °F 89% 29.94 in 10.0 mi West 3.5 mph - N/A   Clear
2:55 AM 58.3 °F - 55.0 °F 89% 29.94 in 10.0 mi WNW 3.5 mph - N/A   Clear
3:15 AM 59.4 °F - 55.2 °F 86% 29.94 in 10.0 mi SW 3.5 mph - N/A   Clear
3:35 AM 58.8 °F - 54.7 °F 86% 29.94 in 10.0 mi Calm Calm - N/A   Clear
3:55 AM 58.6 °F - 54.1 °F 85% 29.95 in 10.0 mi Calm Calm - N/A   Clear
4:15 AM 58.1 °F - 54.7 °F 88% 29.95 in 10.0 mi Calm Calm - N/A   Clear
4:35 AM 58.1 °F - 54.1 °F 87% 29.95 in 10.0 mi Calm Calm - N/A   Clear
4:55 AM 56.1 °F - 53.1 °F 89% 29.96 in 10.0 mi West 3.5 mph - N/A   Clear
5:15 AM 55.8 °F - 53.4 °F 92% 29.96 in 10.0 mi Calm Calm - N/A   Clear
5:35 AM 57.2 °F - 53.8 °F 88% 29.97 in 10.0 mi Calm Calm - N/A   Clear
5:55 AM 56.3 °F - 53.6 °F 91% 29.98 in 10.0 mi SW 3.5 mph - N/A   Clear
6:15 AM 58.5 °F - 55.2 °F 89% 29.99 in 10.0 mi Calm Calm - N/A   Clear
6:35 AM 60.4 °F - 56.3 °F 86% 30.00 in 10.0 mi Calm Calm - N/A   Clear
6:55 AM 62.1 °F - 57.6 °F 85% 30.00 in 10.0 mi Calm Calm - N/A   Clear
7:15 AM 64.6 °F - 58.6 °F 81% 30.00 in 10.0 mi Calm Calm - N/A   Clear
7:35 AM 66.7 °F - 58.3 °F 74% 30.00 in 10.0 mi Calm Calm - N/A   Clear
7:55 AM 69.1 °F - 58.5 °F 69% 30.00 in 10.0 mi Calm Calm - N/A   Clear
8:15 AM 72.3 °F - 57.2 °F 59% 30.00 in 10.0 mi SW 3.5 mph - N/A   Clear
8:55 AM 76.6 °F - 60.3 °F 57% 30.01 in 10.0 mi Calm Calm - N/A   Clear
9:15 AM 79.3 °F - 58.1 °F 48% 30.00 in 10.0 mi Calm Calm - N/A   Clear
9:35 AM 82.6 °F 81.6 °F 54.0 °F 37% 30.01 in 10.0 mi WSW 5.8 mph - N/A   Clear
9:55 AM 83.8 °F 82.6 °F 54.5 °F 36% 30.00 in 10.0 mi SW 3.5 mph - N/A   Clear
10:15 AM 85.3 °F 83.6 °F 53.8 °F 34% 30.00 in 10.0 mi West 3.5 mph - N/A   Clear
10:35 AM 86.9 °F 84.9 °F 54.0 °F 32% 30.00 in 10.0 mi Calm Calm - N/A   Clear
10:55 AM 88.2 °F - 52.3 °F 29% 30.00 in 10.0 mi SSW 6.9 mph - N/A   Clear
11:15 AM 90.3 °F - 51.4 °F 26% 30.00 in 10.0 mi SW 3.5 mph - N/A   Clear
11:35 AM 92.3 °F - 48.2 °F 22% 29.99 in 10.0 mi WSW 5.8 mph - N/A   Clear
11:55 AM 93.2 °F - 48.7 °F 22% 29.99 in 10.0 mi SW 9.2 mph - N/A   Clear
12:15 PM 95.0 °F - 46.8 °F 19% 29.99 in 10.0 mi WSW 12.7 mph - N/A   Clear
12:35 PM 95.4 °F - 47.7 °F 20% 29.99 in 10.0 mi West 9.2 mph - N/A   Clear
12:55 PM 95.4 °F - 47.1 °F 19% 29.98 in 10.0 mi WSW 5.8 mph 16.1 mph N/A   Clear
1:15 PM 95.5 °F - 47.1 °F 19% 29.98 in 10.0 mi SSW 6.9 mph - N/A   Clear
1:35 PM 96.1 °F - 46.2 °F 18% 29.97 in 10.0 mi West 4.6 mph - N/A   Clear
1:55 PM 97.3 °F - 44.6 °F 16% 29.97 in 10.0 mi SSW 5.8 mph - N/A   Clear
2:15 PM 95.7 °F - 45.9 °F 18% 29.97 in 10.0 mi SW 5.8 mph - N/A   Clear
2:35 PM 96.1 °F - 47.7 °F 19% 29.95 in 10.0 mi WSW 6.9 mph - N/A   Clear
2:55 PM 98.6 °F - 44.1 °F 15% 29.95 in 10.0 mi SSW 6.9 mph - N/A   Clear
3:15 PM 97.2 °F - 40.6 °F 14% 29.95 in 10.0 mi SW 11.5 mph 17.3 mph N/A   Clear
3:35 PM 98.6 °F - 42.6 °F 15% 29.95 in 10.0 mi SW 10.4 mph - N/A   Clear
3:55 PM 97.7 °F - 40.8 °F 14% 29.95 in 10.0 mi SW 9.2 mph - N/A   Clear
3:57 PM 98.6 °F - 39.2 °F 13% 29.95 in 10.0 mi WSW 9.2 mph - N/A   Clear
4:15 PM 96.1 °F - 44.2 °F 17% 29.95 in 10.0 mi SW 5.8 mph - N/A   Clear
4:35 PM 96.6 °F - 49.3 °F 20% 29.94 in 10.0 mi South 8.1 mph - N/A   Clear
4:55 PM 96.1 °F - 50.9 °F 22% 29.94 in 10.0 mi South 8.1 mph - N/A   Clear
5:15 PM 96.1 °F - 52.7 °F 23% 29.94 in 10.0 mi South 9.2 mph - N/A   Clear
5:35 PM 94.5 °F - 52.9 °F 24% 29.93 in 10.0 mi SSE 8.1 mph - N/A   Clear
5:55 PM 95.0 °F 92.7 °F 53.6 °F 25% 29.93 in 10.0 mi SSE 9.2 mph - N/A   Clear
6:15 PM 94.1 °F 91.6 °F 53.4 °F 25% 29.93 in 10.0 mi SSE 10.4 mph - N/A   Clear
6:35 PM 93.0 °F 90.8 °F 54.3 °F 27% 29.93 in 10.0 mi SSE 8.1 mph - N/A   Clear
6:55 PM 92.1 °F 90.2 °F 55.9 °F 29% 29.93 in 10.0 mi SE 6.9 mph - N/A   Clear
7:15 PM 89.8 °F 88.1 °F 56.5 °F 32% 29.93 in 10.0 mi SE 6.9 mph - N/A   Clear
7:35 PM 88.5 °F 87.1 °F 56.8 °F 34% 29.93 in 10.0 mi SE 3.5 mph - N/A   Clear
7:55 PM 86.2 °F 85.4 °F 58.3 °F 39% 29.93 in 10.0 mi SSE 4.6 mph - N/A   Clear
8:15 PM 84.6 °F 83.9 °F 57.7 °F 40% 29.93 in 10.0 mi SSE 8.1 mph - N/A   Clear
8:35 PM 83.1 °F 82.7 °F 58.1 °F 42% 29.93 in 10.0 mi SSE 4.6 mph - N/A   Clear
8:55 PM 82.4 °F 82.2 °F 57.6 °F 43% 29.94 in 10.0 mi SSE 4.6 mph - N/A   Clear
9:15 PM 82.2 °F 81.9 °F 57.2 °F 42% 29.95 in 10.0 mi Calm Calm - N/A   Clear
9:35 PM 81.5 °F 81.1 °F 55.8 °F 41% 29.96 in 10.0 mi SSE 5.8 mph - N/A   Clear
9:55 PM 80.2 °F 80.4 °F 56.3 °F 44% 29.97 in 10.0 mi SSE 5.8 mph - N/A   Clear
10:15 PM 79.0 °F - 57.2 °F 47% 29.97 in 10.0 mi Calm Calm - N/A   Clear
10:35 PM 78.3 °F - 57.9 °F 49% 29.97 in 10.0 mi Calm Calm - N/A   Clear
10:55 PM 77.7 °F - 57.7 °F 50% 29.98 in 10.0 mi Calm Calm - N/A   Clear
11:15 PM 76.6 °F - 57.2 °F 51% 29.97 in 10.0 mi Calm Calm - N/A   Clear
11:35 PM 74.3 °F - 57.9 °F 57% 29.97 in 10.0 mi Calm Calm - N/A   Clear